CW1780 Weather Reports


Display with metric or nautical units.
time (UTC)temp
F
wind
direction
speed
MPH
gust
MPH
rain 1hr
in
rain 24hr
in
rain mn
in
humidity
%
barometer
mb
20260502233003 48 63 0.0 9.0 0.00 0.00 0.00 49 1013.4
20260502232024 49 83 1.0 8.0 0.00 0.00 0.00 50 1013.3
20260502231003 50 67 1.0 11.0 0.00 0.00 0.00 49 1013.3
20260502230003 49 70 1.0 7.0 0.00 0.00 0.00 48 1013.2
20260502225003 49 45 1.0 7.0 0.00 0.00 0.00 50 1013.1
20260502224003 49 88 1.0 6.0 0.00 0.00 0.00 48 1013.0
20260502223003 50 59 1.0 8.0 0.00 0.00 0.00 48 1013.0
20260502222024 50 89 1.0 4.0 0.00 0.00 0.00 50 1013.0
20260502221003 50 50 1.0 6.0 0.00 0.00 0.00 48 1012.9
20260502220003 51 120 0.0 8.0 0.00 0.00 0.00 46 1012.9
20260502215003 51 87 1.0 5.0 0.00 0.00 0.00 47 1012.6
20260502214003 51 52 1.0 6.0 0.00 0.00 0.00 47 1012.6
20260502213003 51 66 1.0 9.0 0.00 0.00 0.00 49 1012.4
20260502212003 51 66 1.0 6.0 0.00 0.00 0.00 46 1012.3
20260502211003 53 69 2.0 8.0 0.00 0.00 0.00 45 1012.3
20260502210003 55 62 1.0 7.0 0.00 0.00 0.00 42 1012.3
20260502205003 55 21 2.0 6.0 0.00 0.00 0.00 45 1012.1
20260502204003 53 69 2.0 8.0 0.00 0.00 0.00 46 1012.3
20260502203003 53 53 1.0 8.0 0.00 0.00 0.00 47 1012.2
20260502202003 52 51 1.0 6.0 0.00 0.00 0.00 45 1012.3
20260502201003 53 59 2.0 8.0 0.00 0.00 0.00 46 1012.3
20260502200003 54 48 2.0 9.0 0.00 0.00 0.00 43 1012.4
20260502195003 53 72 1.0 10.0 0.00 0.00 0.00 45 1012.3
20260502194003 53 76 1.0 8.0 0.00 0.00 0.00 47 1012.4
20260502193003 54 71 2.0 6.0 0.00 0.00 0.00 45 1012.2
20260502192003 56 54 1.0 10.0 0.00 0.00 0.00 43 1012.0
20260502191003 55 77 2.0 9.0 0.00 0.00 0.00 44 1011.9
20260502190004 57 60 2.0 10.0 0.00 0.00 0.00 40 1012.0
20260502185003 56 47 1.0 7.0 0.00 0.00 0.00 50 1012.0
20260502184024 56 84 1.0 7.0 0.00 0.00 0.00 43 1012.2
20260502182003 57 76 1.0 6.0 0.00 0.00 0.00 41 1012.2
20260502181003 56 11 1.0 3.0 0.00 0.00 0.00 45 1012.2
20260502164003 52 75 1.0 5.0 0.00 0.00 0.00 43 1013.1
20260502163003 52 65 1.0 8.0 0.00 0.00 0.00 48 1013.2
20260502162003 52 54 0.0 4.0 0.00 0.00 0.00 50 1013.2
20260502161003 52 340 0.0 3.0 0.00 0.00 0.00 47 1013.5
20260502152024 50 27 1.0 3.0 0.00 0.00 0.00 49 1014.0
20260502151003 49 60 1.0 7.0 0.00 0.00 0.00 54 1014.0
20260502123028 42 121 0.0 3.0 0.00 0.00 0.00 62 1013.9
20260502122003 43 77 0.0 5.0 0.00 0.00 0.00 63 1014.0
20260502121003 43 83 0.0 2.0 0.00 0.00 0.00 65 1013.8
20260502115003 42 88 0.0 5.0 0.00 0.00 0.00 63 1014.0
20260502114009 42 131 0.0 1.0 0.00 0.00 0.00 61 1014.1
20260502113008 42 249 0.0 3.0 0.00 0.00 0.00 62 1013.8
20260502112009 42 79 0.0 1.0 0.00 0.00 0.00 61 1013.7
20260502111009 42 95 0.0 2.0 0.00 0.00 0.00 62 1013.6
20260502110008 42 0 0.0 0.0 0.00 0.00 0.00 62 1013.4
20260502105009 42 108 0.0 1.0 0.00 0.00 0.00 61 1013.3
20260502104008 42 100 0.0 2.0 0.00 0.00 0.00 61 1013.3
20260502103008 42 0 0.0 0.0 0.00 0.00 0.00 61 1013.5
20260502102030 43 79 0.0 2.0 0.00 0.00 0.00 61 1013.4
20260502101008 43 84 0.0 5.0 0.00 0.00 0.00 61 1013.6
20260502091024 45 0 0.0 0.0 0.00 0.00 0.00 69 1014.1
20260502071003 47 104 0.0 3.0 0.00 0.00 0.00 73 1013.1
20260502070003 47 64 0.0 3.0 0.00 0.00 0.00 72 1013.3
20260502065003 47 10 0.0 2.0 0.00 0.00 0.00 71 1013.4
20260502064024 48 87 0.0 3.0 0.00 0.00 0.00 71 1013.5
20260502063003 48 59 0.0 1.0 0.00 0.00 0.00 71 1013.6
20260502062003 48 59 0.0 1.0 0.00 0.00 0.00 71 1013.7
20260502061003 48 0 0.0 0.0 0.00 0.00 0.00 72 1013.9
20260502060003 48 59 0.0 1.0 0.00 0.00 0.00 71 1013.9
20260502055024 48 59 0.0 1.0 0.00 0.00 0.00 71 1013.9
20260502054003 48 61 0.0 1.0 0.00 0.00 0.00 71 1013.9
20260502053003 48 60 0.0 1.0 0.00 0.00 0.00 70 1014.0
20260502052003 49 61 0.0 1.0 0.00 0.00 0.00 70 1013.6
20260502051003 49 58 0.0 5.0 0.00 0.00 0.00 70 1013.6
20260502050003 49 0 0.0 0.0 0.00 0.00 0.00 69 1013.6
20260502045003 49 326 0.0 1.0 0.00 0.00 0.00 69 1013.5
20260502044003 49 0 0.0 0.0 0.00 0.00 0.00 69 1013.5
20260502043024 49 329 0.0 3.0 0.00 0.00 0.00 69 1013.5
20260502042003 50 0 0.0 0.0 0.00 0.00 0.00 68 1013.6
20260502041003 50 329 0.0 1.0 0.00 0.00 0.00 68 1013.4
20260502040004 50 299 0.0 4.0 0.00 0.00 0.00 69 1013.6
20260502035024 50 0 0.0 0.0 0.00 0.00 0.00 71 1013.6
20260502034003 50 165 0.0 2.0 0.00 0.00 0.00 70 1013.5
20260502033003 50 167 0.0 1.0 0.00 0.00 0.00 70 1013.6
20260502032003 51 57 0.0 5.0 0.00 0.00 0.00 70 1013.6
20260502031003 51 58 0.0 4.0 0.00 0.00 0.00 69 1013.6
20260502030003 51 49 0.0 1.0 0.00 0.00 0.00 69 1013.6
20260502025024 52 64 0.0 3.0 0.00 0.00 0.00 68 1013.5
20260502024003 52 8 0.0 2.0 0.00 0.00 0.00 67 1013.3
20260502023003 53 81 0.0 4.0 0.00 0.00 0.00 65 1013.1
20260502022003 54 85 0.0 3.0 0.00 0.00 0.00 63 1012.9
20260502021003 54 102 0.0 5.0 0.00 0.00 0.00 60 1012.6
20260502020003 55 148 0.0 8.0 0.00 0.00 0.00 57 1012.4
20260502015003 56 84 1.0 7.0 0.00 0.00 0.00 55 1011.9
20260502014003 57 46 0.0 12.0 0.00 0.00 0.00 52 1011.7
20260502013003 57 75 0.0 5.0 0.00 0.00 0.00 50 1011.6
20260502012003 57 0 0.0 0.0 0.00 0.00 0.00 50 1011.5
20260502011003 57 178 0.0 2.0 0.00 0.00 0.00 48 1011.6
20260502010003 58 180 0.0 1.0 0.00 0.00 0.00 47 1011.4
20260502005003 58 178 0.0 2.0 0.00 0.00 0.00 47 1011.2
20260502004004 58 154 0.0 1.0 0.00 0.00 0.00 45 1011.0
20260502003024 58 187 0.0 3.0 0.00 0.00 0.00 45 1010.8
20260502002003 59 115 0.0 3.0 0.00 0.00 0.00 44 1010.6
20260502001024 59 120 0.0 2.0 0.00 0.00 0.00 44 1010.5
20260502000003 59 61 0.0 3.0 0.00 0.00 0.00 43 1010.4
20260501235024 59 359 0.0 4.0 0.00 0.00 0.00 41 1010.3
20260501234003 60 98 1.0 11.0 0.00 0.00 0.00 41 1010.2